Weather History for Cecil Field, FL

Change the Weather History Date:

Tuesday, March 13, 2012

  Actual Average (KJAX) Record (KJAX)
Temperature  
Mean Temperature 64 °F 61 °F  
Max Temperature 78 °F 73 °F 88 °F (1982)
Min Temperature 50 °F 49 °F 32 °F (1998)
Degree Days  
Heating Degree Days 1 5  
Month to date heating degree days 82  
Since 1 July heating degree days 1215  
Cooling Degree Days 0 2  
Month to date cooling degree days 18  
Year to date cooling degree days 47  
Growing Degree Days 14 (Base 50)    
Moisture  
Dew Point 55 °F    
Average Humidity 84    
Maximum Humidity 100    
Minimum Humidity 50    
Precipitation  
Precipitation 0.00 in 0.14 in 1.74 in (1986)
Month to date precipitation 1.78  
Year to date precipitation 8.27  
Snow  
Snow 0.00 in 0.00 in T in (1993)
Month to date snowfall 0.0  
Since 1 July snowfall T  
Snow Depth -    
Sea Level Pressure  
Sea Level Pressure 30.26 in    
Wind  
Wind Speed 1 mph (East)    
Max Wind Speed 13 mph    
Max Gust Speed -    
Visibility 10 miles    
Events      
T = Trace of Precipitation, MM = Missing Value Source: NWS Daily Summary

Daily Weather History Graph

Daily Weather History Graph

Search for Another Location

Airport:

Trip Planner

Search our weather history database for the weather conditions in past years. The results will help you decide how hot, cold, wet, or windy it might be!

Date:

Astronomy

Mar. 13, 2012 Rise Set
Actual Time 7:39 AM EDT 7:34 PM EDT
Civil Twilight 7:15 AM EDT 7:58 PM EDT
Nautical Twilight 6:47 AM EDT 8:26 PM EDT
Astronomical Twilight 6:19 AM EDT 8:54 PM EDT
Moon 12:38 AM EDT (3/13) 11:18 AM EDT (3/13)
Length of Visible Light 12h 43m
Length of Day
11h 55m
Waning Gibbous, 66% of the Moon is Illuminated
Mar 13
Waning Gibbous
Mar 14
Last Quarter
Mar 22
New
Mar 30
First Quarter
Apr 6
Full

Hourly Weather History & Observations

Time (EDT) Temp. Dew Point Humidity Pressure Visibility Wind Dir Wind Speed Gust Speed Precip Events Conditions
12:15 AM 62.6 °F 57.2 °F 82% 30.29 in 10.0 mi Calm Calm - N/A   Clear
12:35 AM 59.0 °F 57.2 °F 94% 30.29 in 10.0 mi Calm Calm - N/A   Clear
12:55 AM 57.2 °F 55.4 °F 94% 30.29 in 10.0 mi Calm Calm - N/A   Clear
1:15 AM 57.2 °F 55.4 °F 94% 30.28 in 10.0 mi Calm Calm - N/A   Clear
1:35 AM 55.4 °F 53.6 °F 94% 30.28 in 10.0 mi Calm Calm - N/A   Clear
1:55 AM 55.4 °F 55.4 °F 100% 30.28 in 10.0 mi Calm Calm - N/A   Clear
2:35 AM 53.6 °F 53.6 °F 100% 30.28 in 9.0 mi Calm Calm - N/A   Clear
2:55 AM 53.6 °F 53.6 °F 100% 30.28 in 9.0 mi Calm Calm - N/A   Clear
3:15 AM 53.6 °F 53.6 °F 100% 30.28 in 9.0 mi Calm Calm - N/A   Clear
3:35 AM 51.8 °F 51.8 °F 100% 30.27 in 10.0 mi Calm Calm - N/A   Clear
3:55 AM 51.8 °F 50.0 °F 94% 30.26 in 10.0 mi Calm Calm - N/A   Clear
4:15 AM 50.0 °F 50.0 °F 100% 30.26 in 8.0 mi Calm Calm - N/A   Clear
4:35 AM 51.8 °F 51.8 °F 100% 30.26 in 9.0 mi Calm Calm - N/A   Clear
4:55 AM 50.0 °F 50.0 °F 100% 30.25 in 9.0 mi Calm Calm - N/A   Clear
5:15 AM 50.0 °F 50.0 °F 100% 30.25 in 8.0 mi Calm Calm - N/A   Clear
5:35 AM 51.8 °F 51.8 °F 100% 30.25 in 9.0 mi Calm Calm - N/A   Clear
5:55 AM 50.0 °F 50.0 °F 100% 30.25 in 5.0 mi Calm Calm - N/A   Clear
6:15 AM 50.0 °F 50.0 °F 100% 30.25 in 8.0 mi Calm Calm - N/A   Clear
6:35 AM 50.0 °F 50.0 °F 100% 30.26 in 10.0 mi Calm Calm - N/A   Clear
6:50 AM 50.0 °F 48.2 °F 94% 30.26 in 10.0 mi Calm Calm - N/A   Clear
6:55 AM 50.0 °F 50.0 °F 100% 30.26 in 10.0 mi Calm Calm - N/A   Clear
7:15 AM 50.0 °F 50.0 °F 100% 30.27 in 8.0 mi Calm Calm - N/A   Clear
7:50 AM 50.0 °F 50.0 °F 100% 30.28 in 10.0 mi Calm Calm - N/A   Clear
8:50 AM 55.4 °F 53.6 °F 94% 30.29 in 10.0 mi Calm Calm - N/A   Clear
9:50 AM 66.2 °F 60.8 °F 83% 30.30 in 10.0 mi Calm Calm - N/A   Clear
10:50 AM 71.6 °F 59.0 °F 64% 30.30 in 10.0 mi SSE 9.2 mph - N/A   Clear
11:50 AM 75.2 °F 57.2 °F 53% 30.30 in 10.0 mi WNW 3.5 mph - N/A   Clear
12:50 PM 77.0 °F 57.2 °F 50% 30.28 in 10.0 mi Calm Calm - N/A   Mostly Cloudy
1:50 PM 77.0 °F 57.2 °F 50% 30.26 in 10.0 mi Calm Calm - N/A   Mostly Cloudy
2:50 PM 77.0 °F 59.0 °F 54% 30.23 in 10.0 mi ENE 4.6 mph - N/A   Mostly Cloudy
3:50 PM 78.8 °F 59.0 °F 51% 30.21 in 10.0 mi East 3.5 mph - N/A   Mostly Cloudy
4:50 PM 77.0 °F 59.0 °F 54% 30.20 in 10.0 mi Calm Calm - N/A   Scattered Clouds
5:50 PM 78.8 °F 59.0 °F 51% 30.19 in 10.0 mi East 12.7 mph - N/A   Scattered Clouds
6:50 PM 75.2 °F 59.0 °F 57% 30.19 in 10.0 mi East 10.4 mph - N/A   Partly Cloudy
7:50 PM 71.6 °F 59.0 °F 64% 30.22 in 10.0 mi East 5.8 mph - N/A   Clear
9:55 PM 66.2 °F 59.0 °F 78% 30.24 in 10.0 mi ESE 3.5 mph - N/A   Clear
10:15 PM 66.2 °F 59.0 °F 78% 30.25 in 10.0 mi Calm Calm - N/A   Clear
10:35 PM 66.2 °F 59.0 °F 78% 30.24 in 10.0 mi Calm Calm - N/A   Clear
10:55 PM 64.4 °F 59.0 °F 83% 30.25 in 10.0 mi Calm Calm - N/A   Clear
11:15 PM 64.4 °F 59.0 °F 83% 30.25 in 10.0 mi Calm Calm - N/A   Clear
11:35 PM 64.4 °F 59.0 °F 83% 30.25 in 10.0 mi Calm Calm - N/A   Clear
11:55 PM 64.4 °F 59.0 °F 83% 30.25 in 10.0 mi Calm Calm - N/A   Clear